Location: Festilli
(46.4000°N, 11.6667°E)
Time: 14:59:31
(UTC+00:00)

NOSS 3-3 (A) - Pass Details

Date: 03 March 2021
Orbit: 815 x 1397 km, 63.4° (Epoch: 15 April)

Event Time Altitude Azimuth Distance (km) Brightness Sun altitude
Rises 20:08:44 0° 320° (NW) 3,960 8.1 -32.0°
Reaches altitude 10° 20:11:17 10° 321° (NW) 3,077 7.3 -32.4°
Enters shadow 20:18:47 89° 306° (NW) 1,282 4.4 -33.6°
